When you browse on this site, cookies collect data to enhance your experience and personalize the content and advertising you see.
Visit our Privacy Policy to learn more. By continuing to use the site, you agree to this use of cookies and data.
  • Em Portugal
  • Lista de países
  • Para 7 dias
  • Temperatura da água
  • Mapa do tempo
  • Widgets de tempo
  • user-avatar
    Iniciar Sessão

    Previsão horária em Jarylowka

    Hoje, 29 Maio, Sexta-feira

    Tempo Temperatura Precipitação Vento Pressão Humidade
    00:00 +9°C° 0 mm 5 m/s 752 mmHg 87%
    01:00 +9°C° 0 mm 5 m/s 752 mmHg 86%
    02:00 +8°C° 0 mm 5 m/s 752 mmHg 84%
    03:00 +7°C° 0 mm 5 m/s 752 mmHg 85%
    04:00 +7°C° 0 mm 5 m/s 752 mmHg 85%
    05:00 +6°C° 0 mm 5 m/s 751 mmHg 86%
    06:00 +8°C° 0 mm 6 m/s 752 mmHg 81%
    07:00 +9°C° 0 mm 6 m/s 752 mmHg 77%
    08:00 +10°C° 0 mm 6 m/s 752 mmHg 73%
    09:00 +12°C° 0 mm 7 m/s 752 mmHg 68%
    10:00 +14°C° 0 mm 7 m/s 751 mmHg 63%
    11:00 +15°C° 0 mm 7 m/s 751 mmHg 58%
    12:00 +16°C° 0.1 mm 7 m/s 751 mmHg 58%
    13:00 +16°C° 0.1 mm 7 m/s 751 mmHg 58%
    14:00 +16°C° 0.1 mm 7 m/s 751 mmHg 57%
    15:00 +16°C° 0.2 mm 7 m/s 750 mmHg 59%
    16:00 +16°C° 0.2 mm 7 m/s 750 mmHg 62%
    17:00 +16°C° 0.2 mm 6 m/s 750 mmHg 64%
    18:00 +15°C° 0.1 mm 6 m/s 750 mmHg 68%
    19:00 +14°C° 0.1 mm 5 m/s 749 mmHg 72%
    20:00 +13°C° 0.1 mm 5 m/s 749 mmHg 76%
    21:00 +12°C° 0 mm 5 m/s 749 mmHg 76%
    22:00 +12°C° 0 mm 5 m/s 749 mmHg 76%
    23:00 +10°C° 0 mm 6 m/s 749 mmHg 76%

    Amanhã, 30 Maio, Sábado

    Tempo Temperatura Precipitação Vento Pressão Humidade
    00:00 +10°C° 0.1 mm 6 m/s 748 mmHg 78%
    01:00 +10°C° 0.1 mm 6 m/s 748 mmHg 79%
    02:00 +9°C° 0.1 mm 6 m/s 748 mmHg 81%
    03:00 +9°C° 0 mm 7 m/s 748 mmHg 79%
    04:00 +9°C° 0 mm 7 m/s 747 mmHg 77%
    05:00 +9°C° 0 mm 7 m/s 747 mmHg 76%
    06:00 +9°C° 0.1 mm 7 m/s 747 mmHg 75%
    07:00 +10°C° 0.1 mm 7 m/s 747 mmHg 74%
    08:00 +10°C° 0.1 mm 7 m/s 747 mmHg 73%
    09:00 +11°C° 0.2 mm 7 m/s 746 mmHg 74%
    10:00 +11°C° 0.2 mm 7 m/s 746 mmHg 75%
    11:00 +12°C° 0.2 mm 8 m/s 746 mmHg 77%
    12:00 +11°C° 0.6 mm 8 m/s 745 mmHg 82%
    13:00 +11°C° 0.6 mm 8 m/s 745 mmHg 87%
    14:00 +10°C° 0.6 mm 8 m/s 745 mmHg 93%
    15:00 +10°C° 1.6 mm 8 m/s 744 mmHg 92%
    16:00 +11°C° 1.6 mm 8 m/s 744 mmHg 91%
    17:00 +11°C° 1.6 mm 7 m/s 743 mmHg 90%
    18:00 +11°C° 1.3 mm 8 m/s 743 mmHg 91%
    19:00 +11°C° 1.3 mm 8 m/s 743 mmHg 92%
    20:00 +11°C° 1.3 mm 8 m/s 742 mmHg 92%
    21:00 +12°C° 1.6 mm 9 m/s 742 mmHg 92%
    22:00 +12°C° 1.6 mm 9 m/s 741 mmHg 92%
    23:00 +12°C° 1.6 mm 9 m/s 741 mmHg 92%

    Depois de amanhã, 31 Maio, Domingo

    Tempo Temperatura Precipitação Vento Pressão Humidade
    00:00 +12°C° 0.2 mm 9 m/s 741 mmHg 91%
    01:00 +13°C° 0.2 mm 9 m/s 740 mmHg 90%
    02:00 +13°C° 0.2 mm 10 m/s 740 mmHg 89%
    03:00 +13°C° 0.1 mm 9 m/s 741 mmHg 88%
    04:00 +13°C° 0.1 mm 9 m/s 741 mmHg 87%
    05:00 +13°C° 0.1 mm 9 m/s 741 mmHg 87%
    06:00 +13°C° 0 mm 9 m/s 742 mmHg 87%
    07:00 +13°C° 0 mm 9 m/s 743 mmHg 87%
    08:00 +13°C° 0 mm 9 m/s 743 mmHg 87%
    09:00 +13°C° 0 mm 8 m/s 744 mmHg 85%
    10:00 +15°C° 0 mm 8 m/s 745 mmHg 83%
    11:00 +15°C° 0 mm 8 m/s 745 mmHg 81%
    12:00 +16°C° 0 mm 8 m/s 746 mmHg 78%
    13:00 +17°C° 0 mm 7 m/s 746 mmHg 76%
    14:00 +17°C° 0 mm 7 m/s 747 mmHg 73%
    15:00 +17°C° 0 mm 6 m/s 747 mmHg 74%
    16:00 +17°C° 0 mm 6 m/s 747 mmHg 76%
    17:00 +16°C° 0 mm 5 m/s 747 mmHg 77%
    18:00 +16°C° 0 mm 5 m/s 748 mmHg 76%
    19:00 +15°C° 0 mm 5 m/s 748 mmHg 76%
    20:00 +15°C° 0 mm 5 m/s 748 mmHg 75%
    21:00 +14°C° 0 mm 5 m/s 749 mmHg 74%
    22:00 +14°C° 0 mm 5 m/s 749 mmHg 73%
    23:00 +13°C° 0 mm 5 m/s 750 mmHg 72%

    1 Junho, Segunda-feira

    Tempo Temperatura Precipitação Vento Pressão Humidade
    00:00 +12°C° 0 mm 5 m/s 750 mmHg 73%
    01:00 +12°C° 0 mm 5 m/s 750 mmHg 74%
    02:00 +10°C° 0 mm 5 m/s 750 mmHg 75%
    03:00 +10°C° 0 mm 5 m/s 750 mmHg 76%
    04:00 +9°C° 0 mm 6 m/s 751 mmHg 78%
    05:00 +9°C° 0 mm 6 m/s 751 mmHg 80%
    06:00 +10°C° 0 mm 6 m/s 751 mmHg 77%
    07:00 +13°C° 0 mm 6 m/s 752 mmHg 75%
    08:00 +14°C° 0 mm 6 m/s 752 mmHg 72%
    09:00 +15°C° 0 mm 7 m/s 752 mmHg 68%
    10:00 +16°C° 0 mm 7 m/s 752 mmHg 64%
    11:00 +17°C° 0 mm 7 m/s 753 mmHg 60%
    12:00 +17°C° 0 mm 7 m/s 753 mmHg 59%
    13:00 +18°C° 0 mm 7 m/s 753 mmHg 59%
    14:00 +19°C° 0 mm 6 m/s 752 mmHg 58%
    15:00 +19°C° 0 mm 6 m/s 752 mmHg 59%
    16:00 +19°C° 0 mm 6 m/s 752 mmHg 60%
    17:00 +19°C° 0 mm 6 m/s 752 mmHg 62%
    18:00 +16°C° 0 mm 5 m/s 752 mmHg 67%
    19:00 +15°C° 0 mm 4 m/s 752 mmHg 73%
    20:00 +14°C° 0 mm 3 m/s 752 mmHg 79%
    21:00 +14°C° 0 mm 2 m/s 752 mmHg 83%
    22:00 +13°C° 0 mm 2 m/s 752 mmHg 87%
    23:00 +12°C° 0 mm 2 m/s 753 mmHg 90%

    2 Junho, Terça-feira

    Tempo Temperatura Precipitação Vento Pressão Humidade
    00:00 +12°C° 0 mm 2 m/s 752 mmHg 90%
    01:00 +12°C° 0 mm 2 m/s 752 mmHg 90%
    02:00 +12°C° 0 mm 2 m/s 752 mmHg 90%
    03:00 +12°C° 0 mm 2 m/s 752 mmHg 92%
    04:00 +10°C° 0 mm 2 m/s 752 mmHg 93%
    05:00 +10°C° 0 mm 2 m/s 752 mmHg 95%
    06:00 +11°C° 0 mm 3 m/s 752 mmHg 88%
    07:00 +13°C° 0 mm 3 m/s 752 mmHg 81%
    08:00 +14°C° 0 mm 4 m/s 752 mmHg 75%
    09:00 +15°C° 0.1 mm 4 m/s 752 mmHg 70%
    10:00 +17°C° 0.1 mm 4 m/s 752 mmHg 66%
    11:00 +18°C° 0.1 mm 4 m/s 752 mmHg 62%
    12:00 +17°C° 0.2 mm 4 m/s 752 mmHg 63%
    13:00 +17°C° 0.2 mm 4 m/s 751 mmHg 64%
    14:00 +17°C° 0.2 mm 4 m/s 751 mmHg 64%
    15:00 +17°C° 0.1 mm 3 m/s 751 mmHg 64%
    16:00 +18°C° 0.1 mm 3 m/s 751 mmHg 63%
    17:00 +18°C° 0.1 mm 3 m/s 751 mmHg 62%
    18:00 +17°C° 0 mm 3 m/s 751 mmHg 67%
    19:00 +15°C° 0 mm 2 m/s 750 mmHg 72%
    20:00 +14°C° 0 mm 2 m/s 750 mmHg 77%
    21:00 +13°C° 0 mm 2 m/s 751 mmHg 80%
    22:00 +12°C° 0 mm 2 m/s 751 mmHg 83%
    23:00 +10°C° 0 mm 2 m/s 751 mmHg 86%

    3 Junho, Quarta-feira

    Tempo Temperatura Precipitação Vento Pressão Humidade
    00:00 +10°C° 0 mm 1 m/s 751 mmHg 86%
    01:00 +10°C° 0 mm 1 m/s 751 mmHg 87%
    02:00 +9°C° 0 mm 1 m/s 751 mmHg 88%
    03:00 +9°C° 0 mm 1 m/s 751 mmHg 88%
    04:00 +9°C° 0 mm 1 m/s 751 mmHg 87%
    05:00 +9°C° 0 mm 1 m/s 751 mmHg 87%
    06:00 +11°C° 0 mm 1 m/s 751 mmHg 80%
    07:00 +13°C° 0 mm 1 m/s 751 mmHg 73%
    08:00 +15°C° 0 mm 1 m/s 751 mmHg 66%
    09:00 +16°C° 0 mm 2 m/s 751 mmHg 63%
    10:00 +17°C° 0 mm 2 m/s 751 mmHg 59%
    11:00 +17°C° 0 mm 2 m/s 751 mmHg 55%
    12:00 +18°C° 0.1 mm 2 m/s 751 mmHg 54%
    13:00 +18°C° 0.1 mm 2 m/s 751 mmHg 53%
    14:00 +19°C° 0.1 mm 2 m/s 751 mmHg 52%
    15:00 +18°C° 0 mm 2 m/s 751 mmHg 53%
    16:00 +18°C° 0 mm 2 m/s 750 mmHg 54%
    17:00 +18°C° 0 mm 2 m/s 750 mmHg 55%
    18:00 +17°C° 0 mm 2 m/s 750 mmHg 61%
    19:00 +16°C° 0 mm 2 m/s 750 mmHg 66%
    20:00 +14°C° 0 mm 1 m/s 750 mmHg 72%
    21:00 +13°C° 0 mm 1 m/s 750 mmHg 76%
    22:00 +12°C° 0 mm 2 m/s 750 mmHg 80%
    23:00 +10°C° 0 mm 2 m/s 751 mmHg 83%
    Mostrar mais